Location: G�migny
(47.9646°N, 1.6950°E)
Time: 00:52:18
(UTC+00:00)

SJ 16-02 - Pass Details

Date: 23 October 2019
Orbit: 607 x 616 km, 75.0° (Epoch: 12 November)

Event Time Altitude Azimuth Distance (km) Brightness Sun altitude
Rises 20:28:30 0° 320° (NW) 2,877 5.6 -36.4°
Reaches altitude 10° 20:31:57 10° 292° (WNW) 1,964 4.7 -36.9°
Enters shadow 20:33:30 12° 271° (W) 1,803 4.3 -37.2°
